This is the latest recevied weather packets stored in our database for station/object DC1MAK-13. If no packets are shown the sender has not sent any weather packets the latest 10 day(s).
| Time | Temp. | Humidity | Pressure | Rain* | Wind** | Luminosity | Snow |
|---|---|---|---|---|---|---|---|
| 1787497487 | 24.44° C | 36% | 991.8 hPa | - | - | - | - |
| 1787497179 | 24.44° C | 35% | 991.7 hPa | - | - | - | - |
| 1787496876 | 25° C | 36% | 991.7 hPa | - | - | - | - |
| 1787496870 | 25° C | 36% | 991.7 hPa | - | - | - | - |
| 1787496572 | 22.78° C | 38% | 991.6 hPa | - | - | - | - |
| 1787496263 | 22.78° C | 41% | 991.6 hPa | - | - | - | - |
| 1787495967 | 22.22° C | 41% | 991.5 hPa | - | - | - | - |
| 1787495667 | 22.78° C | 41% | 991.6 hPa | - | - | - | - |
| 1787495656 | 22.78° C | 41% | 991.6 hPa | - | - | - | - |
| 1787495359 | 22.22° C | 39% | 991.6 hPa | - | - | - | - |
| 1787495055 | 24.44° C | 35% | 991.7 hPa | - | - | - | - |
| 1787495049 | 24.44° C | 35% | 991.7 hPa | - | - | - | - |
| 1787494752 | 25.56° C | 36% | 991.7 hPa | - | - | - | - |
| 1787494746 | 25.56° C | 36% | 991.7 hPa | - | - | - | - |
| 1787494442 | 24.44° C | 36% | 991.8 hPa | - | - | - | - |
| 1787494147 | 23.33° C | 38% | 991.7 hPa | - | - | - | - |
| 1787493847 | 23.33° C | 38% | 991.8 hPa | - | - | - | - |
| 1787493835 | 23.33° C | 38% | 991.8 hPa | - | - | - | - |
| 1787493538 | 22.78° C | 43% | 991.8 hPa | - | - | - | - |
| 1787493532 | 22.78° C | 43% | 991.8 hPa | - | - | - | - |
| 1787493234 | 22.22° C | 42% | 991.8 hPa | - | - | - | - |
| 1787492931 | 21.67° C | 43% | 991.8 hPa | - | - | - | - |
| 1787492622 | 21.67° C | 42% | 991.8 hPa | - | - | - | - |
| 1787492327 | 21.67° C | 42% | 991.7 hPa | - | - | - | - |
| 1787492318 | 21.67° C | 42% | 991.7 hPa | - | - | - | - |
* Rain since midnight (hover to see other rain measurements)
** Current wind speed in m/s (hover to see current wind gust speed)